Thunderstorms From: 15-12-2017 06:00 Until: 16-12-2017 06:00 warning for: Thunderstorms Level: Yellow info button

Although rather usual in this region, locally or potentially dangerous phenomena are expected. (such as local winds, summer thunderstorms, rising streams or high waves) Be aware and pay attention to the latest weather updates, especially if you carry out activities exposed to weather or close to a stream or shoreline. 


Meteo18 Weather Cam more information Meteo18 Weather Cam


warning for Thunderstorms more information blitzortung!


Rain radar more information rain snow radar


Visit our other weather sites:

Template documentation
and downloads

And another site



Weather Underground History page Text

Daily Summary for June 7, 2017 Units:  English    Metric   Both
« Previous Day
Next Day »
Daily Weekly Monthly Yearly Custom
  High: Low: Average:
Temperature: 66.7 °F 48.9 °F 57 °F
Dew Point: 50.2 °F 44.8 °F 47.5 °F
Humidity: 92 % 50 % 72 %
Wind Speed: 16 mph 0 mph 4.6 mph
Wind Gust: 19 mph - -
Wind:- - WSW
Pressure: 30.2 in 30 in -
Precipitation: 0 in    
Historical Graphs
 
 
Tabular Data for June 7, 2017
Time Temperature Dew Point Pressure Wind Wind Speed Wind Gust Humidity Rainfall Rate (Hourly)
00:02 51.8 °F 48.4 °F 30 in SW 2 mph 8 mph 88 % 0 in
00:07 51.4 °F 48.4 °F 30 in SSW 4 mph 7 mph 89 % 0 in
00:12 51.1 °F 48.2 °F 30 in SSW 3 mph 7 mph 90 % 0 in
00:17 50.7 °F 47.8 °F 30 in South 4 mph 7 mph 90 % 0 in
00:22 50.5 °F 48 °F 30 in SSW 2 mph 7 mph 91 % 0 in
00:27 50.5 °F 48.4 °F 30 in SW 6 mph 8 mph 92 % 0 in
00:32 50.7 °F 48.2 °F 30 in SSW 2 mph 10 mph 91 % 0 in
00:42 51.1 °F 48.2 °F 30 in WSW 3 mph 10 mph 90 % 0 in
00:47 51.3 °F 48.2 °F 30 in WSW 5 mph 13 mph 89 % 0 in
00:52 51.3 °F 48.2 °F 30 in SW 9 mph 13 mph 89 % 0 in
00:57 51.3 °F 47.8 °F 30.1 in WSW 6 mph 13 mph 88 % 0 in
01:02 51.3 °F 47.8 °F 30.1 in WSW 5 mph 13 mph 88 % 0 in
01:07 51.1 °F 47.7 °F 30.1 in SW 4 mph 13 mph 88 % 0 in
01:12 51.1 °F 47.7 °F 30.1 in West 5 mph 12 mph 88 % 0 in
01:17 51.1 °F 47.7 °F 30.1 in SW 6 mph 13 mph 88 % 0 in
01:22 51.1 °F 47.7 °F 30.1 in WSW 4 mph 13 mph 88 % 0 in
01:27 51.1 °F 47.3 °F 30.1 in WSW 7 mph 13 mph 87 % 0 in
01:32 51.1 °F 47.3 °F 30.1 in SW 3 mph 11 mph 87 % 0 in
01:37 51.1 °F 47.1 °F 30.1 in West 6 mph 11 mph 86 % 0 in
01:42 51.1 °F 47.1 °F 30.1 in SW 6 mph 11 mph 86 % 0 in
01:47 51.1 °F 47.1 °F 30.1 in SSW 4 mph 10 mph 86 % 0 in
01:52 50.7 °F 46.9 °F 30.1 in SW 8 mph 11 mph 87 % 0 in
01:57 50.5 °F 46.8 °F 30.1 in WSW 5 mph 11 mph 87 % 0 in
02:02 50.4 °F 46.9 °F 30.1 in WSW 4 mph 11 mph 88 % 0 in
02:07 50.4 °F 46.9 °F 30.1 in WSW 4 mph 9 mph 88 % 0 in
02:12 50.4 °F 46.6 °F 30.1 in SW 5 mph 9 mph 87 % 0 in
02:17 50.5 °F 46.8 °F 30.1 in West 4 mph 11 mph 87 % 0 in
02:22 50.4 °F 46.6 °F 30.1 in SW 6 mph 13 mph 87 % 0 in
02:27 50.4 °F 46.6 °F 30.1 in SW 5 mph 13 mph 87 % 0 in
02:32 50.2 °F 46.4 °F 30.1 in SW 4 mph 13 mph 87 % 0 in
02:37 50 °F 46.2 °F 30.1 in WSW 4 mph 13 mph 87 % 0 in
02:42 49.8 °F 46.4 °F 30.1 in WSW 8 mph 13 mph 88 % 0 in
02:47 49.8 °F 46 °F 30.1 in SSW 5 mph 11 mph 87 % 0 in
02:52 49.8 °F 46 °F 30.1 in WSW 3 mph 11 mph 87 % 0 in
02:57 49.8 °F 46 °F 30.1 in West 4 mph 11 mph 87 % 0 in
03:02 49.8 °F 46 °F 30.1 in SW 8 mph 11 mph 87 % 0 in
03:07 49.8 °F 46 °F 30.1 in SW 4 mph 12 mph 87 % 0 in
03:12 49.8 °F 46 °F 30.1 in WSW 5 mph 12 mph 87 % 0 in
03:17 49.8 °F 46 °F 30.1 in WSW 6 mph 12 mph 87 % 0 in
03:22 49.8 °F 46 °F 30.1 in WSW 4 mph 11 mph 87 % 0 in
03:27 49.6 °F 45.9 °F 30.1 in SSW 4 mph 11 mph 87 % 0 in
03:32 49.6 °F 45.9 °F 30.1 in SSW 4 mph 11 mph 87 % 0 in
03:37 49.8 °F 46 °F 30.1 in SSW 3 mph 13 mph 87 % 0 in
03:42 49.8 °F 46 °F 30.1 in SSW 5 mph 13 mph 87 % 0 in
03:52 49.8 °F 46 °F 30.1 in SSW 4 mph 11 mph 87 % 0 in
03:57 49.8 °F 46 °F 30.1 in SSW 4 mph 11 mph 87 % 0 in
04:02 49.8 °F 46 °F 30.1 in West 6 mph 13 mph 87 % 0 in
04:07 49.8 °F 46 °F 30.1 in SW 5 mph 13 mph 87 % 0 in
04:12 49.8 °F 46 °F 30.1 in SW 3 mph 10 mph 87 % 0 in
04:17 49.8 °F 46 °F 30.1 in WSW 11 mph 11 mph 87 % 0 in
04:22 49.8 °F 46 °F 30.1 in SSW 2 mph 13 mph 87 % 0 in
04:27 49.6 °F 46.2 °F 30.1 in WSW 3 mph 13 mph 88 % 0 in
04:32 49.6 °F 46.2 °F 30.1 in WSW 6 mph 13 mph 88 % 0 in
04:37 49.5 °F 46 °F 30.1 in WSW 6 mph 11 mph 88 % 0 in
04:42 49.3 °F 45.9 °F 30.1 in WSW 5 mph 10 mph 88 % 0 in
04:47 49.3 °F 46.2 °F 30.1 in WSW 7 mph 10 mph 89 % 0 in
04:52 49.3 °F 46.2 °F 30.1 in SW 9 mph 10 mph 89 % 0 in
04:57 49.1 °F 46 °F 30.1 in WSW 5 mph 12 mph 89 % 0 in
05:02 49.1 °F 46 °F 30.1 in WSW 4 mph 12 mph 89 % 0 in
05:07 49.1 °F 46 °F 30.1 in SW 2 mph 9 mph 89 % 0 in
05:12 49.1 °F 46 °F 30.1 in West 3 mph 10 mph 89 % 0 in
05:17 49.1 °F 46 °F 30.1 in SW 3 mph 10 mph 89 % 0 in
05:22 48.9 °F 45.9 °F 30.1 in SW 2 mph 9 mph 89 % 0 in
05:27 48.9 °F 46 °F 30.1 in West 3 mph 8 mph 90 % 0 in
05:32 48.9 °F 46 °F 30.1 in WSW 3 mph 8 mph 90 % 0 in
05:37 48.9 °F 46 °F 30.1 in West 4 mph 9 mph 90 % 0 in
05:42 49.1 °F 46.2 °F 30.1 in South 2 mph 11 mph 90 % 0 in
05:47 49.1 °F 46.2 °F 30.1 in West 10 mph 11 mph 90 % 0 in
05:52 49.1 °F 46.2 °F 30.1 in West 2 mph 11 mph 90 % 0 in
05:57 49.1 °F 46.2 °F 30.1 in WSW 5 mph 11 mph 90 % 0 in
06:02 49.1 °F 46.2 °F 30.1 in SW 3 mph 11 mph 90 % 0 in
06:12 49.1 °F 46.2 °F 30.1 in WSW 7 mph 12 mph 90 % 0 in
06:17 49.1 °F 46.2 °F 30.1 in West 3 mph 12 mph 90 % 0 in
06:22 48.9 °F 46 °F 30.1 in SW 5 mph 10 mph 90 % 0 in
06:27 49.1 °F 46.2 °F 30.1 in WSW 5 mph 10 mph 90 % 0 in
06:32 49.1 °F 46.6 °F 30.1 in SW 3 mph 10 mph 91 % 0 in
06:42 49.1 °F 46.6 °F 30.1 in WSW 5 mph 10 mph 91 % 0 in
06:47 49.3 °F 46.8 °F 30.1 in SW 4 mph 10 mph 91 % 0 in
07:02 49.5 °F 46.6 °F 30.1 in SW 3 mph 10 mph 90 % 0 in
07:07 49.5 °F 46.6 °F 30.1 in West 7 mph 10 mph 90 % 0 in
07:12 49.6 °F 46.8 °F 30.1 in SW 3 mph 10 mph 90 % 0 in
07:17 49.8 °F 46.9 °F 30.1 in WSW 2 mph 9 mph 90 % 0 in
07:22 50.2 °F 47.1 °F 30.1 in SW 3 mph 9 mph 89 % 0 in
07:27 50.4 °F 47.3 °F 30.1 in WSW 1 mph 8 mph 89 % 0 in
07:32 50.5 °F 47.5 °F 30.1 in SSW 3 mph 8 mph 89 % 0 in
07:42 50.9 °F 47.5 °F 30.1 in SW 4 mph 9 mph 88 % 0 in
07:47 51.1 °F 47.7 °F 30.1 in WSW 5 mph 9 mph 88 % 0 in
07:52 51.3 °F 47.8 °F 30.1 in WSW 7 mph 10 mph 88 % 0 in
07:57 51.3 °F 47.5 °F 30.1 in SW 4 mph 15 mph 87 % 0 in
08:02 51.4 °F 47.7 °F 30.1 in WSW 9 mph 15 mph 87 % 0 in
08:12 52 °F 47.8 °F 30.2 in WSW 5 mph 12 mph 86 % 0 in
08:27 52.5 °F 48.2 °F 30.2 in WNW 3 mph 12 mph 85 % 0 in
08:32 52.5 °F 47.8 °F 30.2 in West 3 mph 12 mph 84 % 0 in
08:37 52.5 °F 47.5 °F 30.2 in NW 8 mph 11 mph 83 % 0 in
08:47 52.9 °F 47.8 °F 30.2 in WSW 6 mph 13 mph 83 % 0 in
08:52 52.9 °F 47.8 °F 30.2 in WNW 3 mph 13 mph 83 % 0 in
08:57 53.1 °F 48 °F 30.2 in WSW 6 mph 11 mph 83 % 0 in
09:02 53.2 °F 48.2 °F 30.2 in WSW 6 mph 10 mph 83 % 0 in
09:07 53.2 °F 47.5 °F 30.2 in West 4 mph 10 mph 81 % 0 in
09:12 53.8 °F 48 °F 30.2 in WSW 6 mph 10 mph 81 % 0 in
09:17 54.1 °F 47.8 °F 30.2 in West 4 mph 12 mph 79 % 0 in
09:22 54.3 °F 47.7 °F 30.2 in West 5 mph 13 mph 78 % 0 in
09:27 54.3 °F 47.7 °F 30.2 in WSW 4 mph 13 mph 78 % 0 in
09:32 54.5 °F 47.5 °F 30.2 in WSW 8 mph 13 mph 77 % 0 in
09:37 54.7 °F 47.3 °F 30.2 in WSW 11 mph 13 mph 76 % 0 in
09:42 55 °F 47.7 °F 30.2 in West 4 mph 14 mph 76 % 0 in
09:47 55.4 °F 47.7 °F 30.2 in WSW 10 mph 14 mph 75 % 0 in
09:52 55.2 °F 47.1 °F 30.2 in WSW 7 mph 14 mph 74 % 0 in
10:02 55.6 °F 47.8 °F 30.2 in SW 4 mph 16 mph 75 % 0 in
10:07 55.9 °F 48.2 °F 30.2 in WSW 7 mph 16 mph 75 % 0 in
10:12 56.1 °F 47.3 °F 30.2 in WSW 5 mph 15 mph 72 % 0 in
10:17 56.3 °F 47.8 °F 30.2 in SSW 7 mph 15 mph 73 % 0 in
10:22 56.8 °F 48.6 °F 30.2 in West 9 mph 15 mph 74 % 0 in
10:32 56.8 °F 46.4 °F 30.2 in WSW 4 mph 12 mph 68 % 0 in
10:37 57 °F 46.6 °F 30.2 in West 4 mph 14 mph 68 % 0 in
10:42 56.8 °F 46.8 °F 30.2 in West 5 mph 14 mph 69 % 0 in
10:47 57 °F 46.9 °F 30.2 in WNW 7 mph 13 mph 69 % 0 in
10:57 57.6 °F 46.8 °F 30.2 in SW 5 mph 14 mph 67 % 0 in
11:02 57.4 °F 45.3 °F 30.2 in WSW 8 mph 14 mph 64 % 0 in
11:07 57.4 °F 46 °F 30.2 in WNW 6 mph 14 mph 66 % 0 in
11:12 57.9 °F 45.9 °F 30.2 in SW 5 mph 14 mph 64 % 0 in
11:17 58.1 °F 46 °F 30.2 in West 6 mph 13 mph 64 % 0 in
11:22 58.6 °F 48.2 °F 30.2 in SW 6 mph 13 mph 68 % 0 in
11:32 59.4 °F 46.8 °F 30.2 in West 9 mph 15 mph 63 % 0 in
11:37 58.8 °F 45.9 °F 30.2 in WSW 12 mph 15 mph 62 % 0 in
11:42 58.8 °F 46.6 °F 30.2 in West 3 mph 16 mph 64 % 0 in
11:47 59.7 °F 47.1 °F 30.2 in WSW 5 mph 16 mph 63 % 0 in
11:52 59.7 °F 45.9 °F 30.2 in WSW 9 mph 16 mph 60 % 0 in
11:57 59 °F 45.5 °F 30.2 in WSW 2 mph 13 mph 61 % 0 in
12:02 59.4 °F 46.8 °F 30.2 in NW 7 mph 13 mph 63 % 0 in
12:07 59.2 °F 46.6 °F 30.2 in WSW 7 mph 12 mph 63 % 0 in
12:12 59.2 °F 46.2 °F 30.2 in West 6 mph 12 mph 62 % 0 in
12:17 59.5 °F 46.9 °F 30.2 in West 5 mph 11 mph 63 % 0 in
12:22 60.1 °F 46.9 °F 30.2 in West 7 mph 14 mph 62 % 0 in
12:27 60.4 °F 48.2 °F 30.2 in WNW 9 mph 14 mph 64 % 0 in
12:32 59.9 °F 46 °F 30.2 in WNW 11 mph 19 mph 60 % 0 in
12:42 59.2 °F 46.6 °F 30.2 in WSW 6 mph 19 mph 63 % 0 in
12:47 59 °F 46 °F 30.2 in West 6 mph 18 mph 62 % 0 in
12:52 59.5 °F 46.6 °F 30.2 in West 5 mph 15 mph 62 % 0 in
12:57 59.7 °F 45.9 °F 30.2 in WSW 7 mph 12 mph 60 % 0 in
13:02 59.7 °F 46.2 °F 30.2 in WNW 7 mph 14 mph 61 % 0 in
13:07 59.9 °F 46.8 °F 30.2 in WSW 15 mph 15 mph 62 % 0 in
13:12 60.4 °F 46.4 °F 30.2 in West 9 mph 16 mph 60 % 0 in
13:17 61.3 °F 46.9 °F 30.2 in WSW 8 mph 17 mph 59 % 0 in
13:22 61.9 °F 46 °F 30.2 in WSW 8 mph 17 mph 56 % 0 in
13:27 61.5 °F 46.2 °F 30.2 in West 5 mph 15 mph 57 % 0 in
13:32 61.2 °F 45.9 °F 30.2 in WNW 7 mph 15 mph 57 % 0 in
13:42 61.2 °F 46.8 °F 30.2 in WNW 6 mph 15 mph 59 % 0 in
13:47 61 °F 46.6 °F 30.2 in NW 10 mph 13 mph 59 % 0 in
13:52 61.3 °F 47.3 °F 30.2 in West 9 mph 13 mph 60 % 0 in
13:57 61.5 °F 44.8 °F 30.2 in WSW 6 mph 13 mph 54 % 0 in
14:02 61.9 °F 45.5 °F 30.2 in WSW 16 mph 16 mph 55 % 0 in
14:07 61.9 °F 46.4 °F 30.2 in West 6 mph 18 mph 57 % 0 in
14:12 61.9 °F 46.9 °F 30.2 in WNW 8 mph 19 mph 58 % 0 in
14:17 62.2 °F 46.8 °F 30.2 in WNW 7 mph 19 mph 57 % 0 in
14:22 63 °F 46.9 °F 30.2 in West 8 mph 19 mph 56 % 0 in
14:27 63.1 °F 46.8 °F 30.2 in SW 6 mph 17 mph 55 % 0 in
14:32 63.9 °F 48.4 °F 30.2 in West 6 mph 15 mph 57 % 0 in
14:37 64 °F 47.5 °F 30.2 in West 6 mph 15 mph 55 % 0 in
14:42 63.5 °F 47.5 °F 30.2 in SW 4 mph 15 mph 56 % 0 in
14:47 63.1 °F 48.2 °F 30.2 in West 6 mph 13 mph 58 % 0 in
14:52 63.1 °F 47.7 °F 30.2 in WSW 9 mph 14 mph 57 % 0 in
14:57 63.3 °F 47.8 °F 30.2 in SW 6 mph 14 mph 57 % 0 in
15:02 63.7 °F 47.7 °F 30.2 in SSW 9 mph 17 mph 56 % 0 in
15:07 63.3 °F 47.8 °F 30.2 in West 8 mph 17 mph 57 % 0 in
15:12 63.5 °F 47.5 °F 30.2 in SW 4 mph 17 mph 56 % 0 in
15:17 63.9 °F 48.7 °F 30.2 in WNW 4 mph 16 mph 58 % 0 in
15:22 64.4 °F 47.8 °F 30.2 in WSW 7 mph 12 mph 55 % 0 in
15:27 64.6 °F 48.6 °F 30.2 in West 12 mph 14 mph 56 % 0 in
15:32 64.9 °F 49.3 °F 30.2 in WNW 4 mph 16 mph 57 % 0 in
15:37 64.4 °F 47.8 °F 30.2 in West 5 mph 16 mph 55 % 0 in
15:42 64.2 °F 48.7 °F 30.2 in WSW 6 mph 16 mph 57 % 0 in
15:47 64.6 °F 48.6 °F 30.2 in WSW 10 mph 12 mph 56 % 0 in
15:52 64.8 °F 48.7 °F 30.2 in WSW 3 mph 10 mph 56 % 0 in
15:57 64.9 °F 47.8 °F 30.2 in West 7 mph 10 mph 54 % 0 in
16:02 64.2 °F 48.2 °F 30.2 in WSW 7 mph 15 mph 56 % 0 in
16:07 64.4 °F 48.4 °F 30.2 in SSW 4 mph 15 mph 56 % 0 in
16:12 64.9 °F 47.5 °F 30.2 in SW 9 mph 15 mph 53 % 0 in
16:17 65.1 °F 47.5 °F 30.2 in WSW 5 mph 13 mph 53 % 0 in
16:22 64.9 °F 47.5 °F 30.2 in West 8 mph 13 mph 53 % 0 in
16:27 64.8 °F 48.2 °F 30.2 in WNW 8 mph 13 mph 55 % 0 in
16:32 65.3 °F 48.7 °F 30.2 in West 1 mph 12 mph 55 % 0 in
16:37 66 °F 47.8 °F 30.2 in West 6 mph 11 mph 52 % 0 in
16:42 66 °F 47.8 °F 30.2 in West 2 mph 11 mph 52 % 0 in
16:52 66.4 °F 47.7 °F 30.2 in West 2 mph 14 mph 51 % 0 in
17:02 65.7 °F 49.1 °F 30.2 in West 5 mph 12 mph 55 % 0 in
17:12 65.8 °F 48.2 °F 30.2 in WSW 5 mph 11 mph 53 % 0 in
17:17 66.4 °F 48.2 °F 30.2 in West 5 mph 11 mph 52 % 0 in
17:22 66.2 °F 48 °F 30.2 in WSW 5 mph 11 mph 52 % 0 in
17:27 66.6 °F 48.4 °F 30.2 in WSW 2 mph 12 mph 52 % 0 in
17:32 66.7 °F 48 °F 30.2 in West 4 mph 12 mph 51 % 0 in
17:37 66.7 °F 49.1 °F 30.2 in WSW 5 mph 12 mph 53 % 0 in
17:42 66.6 °F 47.3 °F 30.2 in WSW 8 mph 11 mph 50 % 0 in
17:47 65.7 °F 47.5 °F 30.2 in West 7 mph 12 mph 52 % 0 in
17:52 65.3 °F 46.2 °F 30.2 in WSW 2 mph 12 mph 50 % 0 in
17:57 65.7 °F 47.5 °F 30.2 in WSW 3 mph 12 mph 52 % 0 in
18:02 65.8 °F 47.1 °F 30.2 in WSW 10 mph 14 mph 51 % 0 in
18:07 65.5 °F 46.9 °F 30.2 in SSW 5 mph 14 mph 51 % 0 in
18:12 65.8 °F 47.1 °F 30.2 in SW 2 mph 14 mph 51 % 0 in
18:17 66.6 °F 47.8 °F 30.2 in WSW 9 mph 12 mph 51 % 0 in
18:22 66.7 °F 47.5 °F 30.2 in West 6 mph 13 mph 50 % 0 in
18:32 65.8 °F 48.2 °F 30.2 in WSW 3 mph 13 mph 53 % 0 in
18:37 66 °F 48.4 °F 30.2 in WNW 3 mph 12 mph 53 % 0 in
18:42 66.6 °F 47.8 °F 30.2 in WSW 4 mph 9 mph 51 % 0 in
18:47 66.7 °F 48 °F 30.2 in West 5 mph 7 mph 51 % 0 in
18:52 65.8 °F 47.7 °F 30.2 in WSW 4 mph 11 mph 52 % 0 in
18:57 66.4 °F 48.2 °F 30.2 in WSW 6 mph 11 mph 52 % 0 in
19:02 66.6 °F 48.4 °F 30.2 in West 6 mph 11 mph 52 % 0 in
19:12 66.7 °F 48 °F 30.2 in SSW 2 mph 12 mph 51 % 0 in
19:17 66.7 °F 49.1 °F 30.2 in West 3 mph 12 mph 53 % 0 in
19:22 66.2 °F 48.6 °F 30.2 in WSW 4 mph 9 mph 53 % 0 in
19:27 65.8 °F 48.7 °F 30.2 in SW 3 mph 7 mph 54 % 0 in
19:32 65.8 °F 48.2 °F 30.2 in SW 3 mph 8 mph 53 % 0 in
19:37 66 °F 47.8 °F 30.2 in WSW 3 mph 8 mph 52 % 0 in
19:42 66.4 °F 49.3 °F 30.2 in SW 1 mph 8 mph 54 % 0 in
19:47 66.6 °F 48.9 °F 30.2 in West 2 mph 7 mph 53 % 0 in
19:52 66.4 °F 48.2 °F 30.2 in West 5 mph 7 mph 52 % 0 in
19:57 65.8 °F 48.2 °F 30.2 in West 4 mph 10 mph 53 % 0 in
20:07 64.8 °F 48.7 °F 30.2 in West 4 mph 11 mph 56 % 0 in
20:12 64.6 °F 48.9 °F 30.2 in WSW 1 mph 11 mph 57 % 0 in
20:17 64.2 °F 48.7 °F 30.2 in West 2 mph 8 mph 57 % 0 in
20:22 64 °F 48.9 °F 30.2 in WSW 1 mph 5 mph 58 % 0 in
20:27 63.9 °F 48.7 °F 30.2 in WSW 1 mph 3 mph 58 % 0 in
20:37 64.2 °F 49.1 °F 30.2 in SW 3 mph 3 mph 58 % 0 in
20:42 64.4 °F 48.9 °F 30.2 in SW 2 mph 4 mph 57 % 0 in
20:52 64.2 °F 48.7 °F 30.2 in SW 2 mph 7 mph 57 % 0 in
20:57 64 °F 48 °F 30.2 in WSW 2 mph 7 mph 56 % 0 in
21:02 63.7 °F 48.6 °F 30.2 in SW 2 mph 6 mph 58 % 0 in
21:07 63.3 °F 48.4 °F 30.2 in SW 4 mph 6 mph 58 % 0 in
21:12 63.1 °F 48.6 °F 30.2 in SW 2 mph 6 mph 59 % 0 in
21:17 62.8 °F 48.7 °F 30.2 in SW 2 mph 5 mph 60 % 0 in
21:22 62.2 °F 49.1 °F 30.2 in Calm   4 mph 62 % 0 in
21:32 61.2 °F 49.3 °F 30.2 in Calm   3 mph 65 % 0 in
21:37 60.6 °F 50 °F 30.2 in Calm   2 mph 68 % 0 in
21:42 60.1 °F 49.8 °F 30.2 in Calm   2 mph 69 % 0 in
21:47 59.5 °F 49.3 °F 30.2 in Calm   1 mph 69 % 0 in
21:52 59 °F 50 °F 30.2 in Calm     72 % 0 in
21:57 58.5 °F 50.2 °F 30.2 in Calm     74 % 0 in
22:02 57.9 °F 50 °F 30.2 in Calm     75 % 0 in
22:07 57.6 °F 50 °F 30.2 in Calm     76 % 0 in
22:12 57.4 °F 49.8 °F 30.2 in Calm     76 % 0 in
22:17 57.2 °F 50 °F 30.2 in Calm     77 % 0 in
22:22 57 °F 49.8 °F 30.2 in Calm     77 % 0 in
22:27 57 °F 50.2 °F 30.2 in Calm     78 % 0 in
22:32 56.5 °F 49.6 °F 30.2 in Calm     78 % 0 in
22:37 55.9 °F 49.5 °F 30.2 in Calm     79 % 0 in
22:42 55.4 °F 49.3 °F 30.2 in Calm     80 % 0 in
22:47 55 °F 49.3 °F 30.2 in Calm     81 % 0 in
22:52 54.9 °F 49.5 °F 30.2 in Calm     82 % 0 in
22:57 54.7 °F 49.3 °F 30.2 in Calm     82 % 0 in
23:02 54.7 °F 49.3 °F 30.2 in Calm     82 % 0 in
23:12 54.3 °F 49.3 °F 30.2 in Calm     83 % 0 in
23:17 54.1 °F 49.1 °F 30.2 in Calm     83 % 0 in
23:22 54 °F 48.9 °F 30.2 in Calm     83 % 0 in
23:27 54 °F 48.9 °F 30.2 in Calm     83 % 0 in
23:32 53.8 °F 49.1 °F 30.2 in Calm     84 % 0 in
23:42 53.4 °F 49.1 °F 30.2 in Calm     85 % 0 in
23:47 53.2 °F 48.9 °F 30.2 in Calm     85 % 0 in
23:52 53.1 °F 48.9 °F 30.2 in Calm     86 % 0 in
23:57 52.9 °F 48.7 °F 30.2 in Calm     86 % 0 in
Meteo18
Compliments of Weather Underground - 4 mb

Script developed by  Jim McMurry - jmcmurry@mwt.net Adapted for the template by  Wim van der Kuil - Leuven-Template.eu

You find our weather info also at:

European Weather Network

Weather Underground

Equipment we use:

Weather-station
Davis Vue

Weather-program
Meteohub

Weather-server
Raspberry PI 2 B+

Provider
1 and 1

Davis Vue

Meteohub

Raspberry PI 2 B+

1 and 1